Canby, MN

7:54 PM CDT on March 27, 2017 (GMT -0500)
Canby

Weather History for KCNB - September, 2012

Change the Weather History Date:

Wednesday, September 5, 2012

  Actual Average (KMML) Record (KMML)
Temperature  
Mean Temperature 66 °F -  
Max Temperature 78 °F 79 °F 94 °F (1990)
Min Temperature 54 °F 53 °F 37 °F (1965)
Cooling Degree Days 1    
Growing Degree Days 16 (Base 50)    
Moisture  
Dew Point 46 °F    
Average Humidity 54    
Maximum Humidity 87    
Minimum Humidity 23    
Precipitation  
Precipitation 0.00 in - - ()
Sea Level Pressure  
Sea Level Pressure 29.90 in    
Wind  
Wind Speed 7 mph (WNW)    
Max Wind Speed 17 mph    
Max Gust Speed 25 mph    
Visibility 10 miles    
Events      
Averages and records for this station are not official NWS values.
T = Trace of Precipitation, MM = Missing Value Source: NWS Daily Summary

Daily Weather History Graph

Daily Weather History Graph

Search for Another Location

Airport or City:

Trip Planner

Search our weather history database for the weather conditions in past years. The results will help you decide how hot, cold, wet, or windy it might be!

Date:

Astronomy

Sep. 05, 2012 Rise Set
Actual Time 6:52 AM CDT 7:53 PM CDT
Civil Twilight 6:22 AM CDT 8:23 PM CDT
Nautical Twilight 5:47 AM CDT 8:58 PM CDT
Astronomical Twilight 5:09 AM CDT 9:36 PM CDT
Moon 10:08 PM CDT (9/5) 12:13 PM CDT (9/5)
Length of Visible Light 14h 00m
Length of Day
13h 00m
Waning Gibbous, 76% of the Moon is Illuminated
Sep 5
Waning Gibbous
Sep 8
Last Quarter
Sep 15
New
Sep 22
First Quarter
Sep 29
Full

Hourly Weather History & Observations

Time (CDT) Temp. Dew Point Humidity Pressure Visibility Wind Dir Wind Speed Gust Speed Precip Events Conditions
12:14 AM 64.9 °F 54.7 °F 69% 29.76 in 10.0 mi East 3.5 mph - N/A   Clear
12:34 AM 64.0 °F 54.5 °F 71% 29.76 in 10.0 mi SSE 3.5 mph - N/A   Clear
12:55 AM 62.4 °F 55.0 °F 77% 29.76 in 10.0 mi SE 3.5 mph - N/A   Clear
1:14 AM 63.0 °F 54.7 °F 74% 29.77 in 10.0 mi SSE 6.9 mph - N/A   Clear
1:34 AM 62.6 °F 54.9 °F 76% 29.77 in 10.0 mi SSE 4.6 mph - N/A   Clear
1:54 AM 62.4 °F 54.7 °F 76% 29.83 in 10.0 mi North 6.9 mph 25.3 mph N/A   Clear
2:14 AM 63.1 °F 54.5 °F 73% 29.84 in 10.0 mi Calm Calm - N/A   Clear
2:34 AM 60.4 °F 54.7 °F 81% 29.85 in 10.0 mi NW 3.5 mph - N/A   Clear
2:54 AM 59.4 °F 54.7 °F 84% 29.86 in 10.0 mi NW 8.1 mph - N/A   Clear
3:14 AM 59.0 °F 54.1 °F 84% 29.85 in 10.0 mi NW 5.8 mph - N/A   Clear
3:34 AM 57.9 °F 53.8 °F 86% 29.85 in 10.0 mi WNW 3.5 mph - N/A   Clear
3:54 AM 57.2 °F 53.1 °F 86% 29.84 in 10.0 mi West 5.8 mph - N/A   Clear
4:15 AM 57.6 °F 52.9 °F 84% 29.84 in 10.0 mi West 3.5 mph - N/A   Clear
4:34 AM 57.6 °F 52.5 °F 83% 29.85 in 10.0 mi WSW 3.5 mph - N/A   Clear
4:54 AM 56.5 °F 52.5 °F 87% 29.86 in 10.0 mi West 5.8 mph - N/A   Clear
5:14 AM 57.4 °F 52.3 °F 83% 29.89 in 10.0 mi NW 9.2 mph - N/A   Clear
5:35 AM 59.9 °F 52.3 °F 76% 29.90 in 10.0 mi NW 9.2 mph - N/A   Clear
5:54 AM 59.5 °F 52.2 °F 77% 29.90 in 10.0 mi NW 5.8 mph - N/A   Clear
6:14 AM 56.8 °F 52.0 °F 84% 29.89 in 10.0 mi West 5.8 mph - N/A   Clear
6:35 AM 56.7 °F 51.8 °F 84% 29.88 in 10.0 mi Calm Calm - N/A   Clear
6:54 AM 56.1 °F 51.4 °F 84% 29.89 in 10.0 mi West 6.9 mph - N/A   Clear
7:14 AM 56.1 °F 51.3 °F 84% 29.89 in 10.0 mi Calm Calm - N/A   Clear
7:35 AM 56.5 °F 51.8 °F 84% 29.90 in 10.0 mi WNW 6.9 mph - N/A   Scattered Clouds
7:55 AM 59.0 °F 52.2 °F 78% 29.90 in 10.0 mi NW 4.6 mph - N/A   Clear
8:14 AM 60.4 °F 52.9 °F 76% 29.91 in 10.0 mi WNW 6.9 mph - N/A   Clear
8:34 AM 62.8 °F 52.0 °F 68% 29.91 in 10.0 mi NW 10.4 mph - N/A   Clear
8:54 AM 63.7 °F 50.9 °F 63% 29.91 in 10.0 mi NW 12.7 mph 19.6 mph N/A   Clear
9:14 AM 64.4 °F 48.7 °F 57% 29.92 in 10.0 mi NNW 15.0 mph 25.3 mph N/A   Clear
9:34 AM 65.7 °F 49.1 °F 55% 29.93 in 10.0 mi NW 12.7 mph 18.4 mph N/A   Clear
10:14 AM 68.2 °F 45.7 °F 44% 29.94 in 10.0 mi NW 13.8 mph 20.7 mph N/A   Clear
10:34 AM 69.3 °F 45.7 °F 43% 29.95 in 10.0 mi NNW 11.5 mph - N/A   Clear
10:55 AM 70.2 °F 43.2 °F 38% 29.95 in 10.0 mi NNW 15.0 mph 19.6 mph N/A   Clear
11:14 AM 71.4 °F 42.4 °F 35% 29.94 in 10.0 mi NW 13.8 mph - N/A   Clear
11:34 AM 71.4 °F 41.9 °F 34% 29.94 in 10.0 mi NNW 17.3 mph 21.9 mph N/A   Clear
11:53 AM 72.3 °F 41.2 °F 32% 29.94 in 10.0 mi NNW 15.0 mph - N/A   Clear
12:15 PM 73.6 °F 40.8 °F 31% 29.94 in 10.0 mi NW 13.8 mph 20.7 mph N/A   Clear
12:34 PM 74.5 °F 40.5 °F 29% 29.93 in 10.0 mi NW 10.4 mph 18.4 mph N/A   Clear
12:54 PM 75.4 °F 40.1 °F 28% 29.92 in 10.0 mi North 10.4 mph 18.4 mph N/A   Clear
1:15 PM 76.1 °F 40.1 °F 27% 29.92 in 10.0 mi NW 8.1 mph - N/A   Clear
1:34 PM 77.0 °F 39.2 °F 26% 29.92 in 10.0 mi WNW 12.7 mph 21.9 mph N/A   Clear
1:54 PM 77.0 °F 36.5 °F 23% 29.92 in 10.0 mi WNW 12.7 mph 20.7 mph N/A   Clear
2:14 PM 77.2 °F 36.7 °F 23% 29.91 in 10.0 mi WNW 17.3 mph 23.0 mph N/A   Clear
2:34 PM 77.2 °F 37.2 °F 24% 29.91 in 10.0 mi NW 15.0 mph 24.2 mph N/A   Clear
2:54 PM 77.2 °F 37.8 °F 24% 29.91 in 10.0 mi NW 11.5 mph - N/A   Clear
3:15 PM 77.2 °F 37.6 °F 24% 29.91 in 10.0 mi West 15.0 mph 23.0 mph N/A   Clear
3:34 PM 77.7 °F 38.8 °F 25% 29.91 in 10.0 mi WNW 13.8 mph - N/A   Clear
3:54 PM 77.9 °F 39.9 °F 26% 29.91 in 10.0 mi NW 12.7 mph 23.0 mph N/A   Clear
4:15 PM 77.9 °F 40.3 °F 26% 29.91 in 10.0 mi WNW 8.1 mph 21.9 mph N/A   Clear
4:34 PM 78.3 °F 40.3 °F 26% 29.91 in 10.0 mi NW 12.7 mph 18.4 mph N/A   Clear
5:14 PM 77.4 °F 40.3 °F 26% 29.91 in 10.0 mi NW 10.4 mph 19.6 mph N/A   Clear
5:34 PM 76.6 °F 41.0 °F 28% 29.91 in 10.0 mi NNW 11.5 mph 16.1 mph N/A   Clear
5:54 PM 76.3 °F 41.0 °F 28% 29.91 in 10.0 mi NW 9.2 mph - N/A   Clear
6:14 PM 75.7 °F 40.6 °F 28% 29.91 in 10.0 mi NW 12.7 mph 17.3 mph N/A   Clear
6:34 PM 75.0 °F 41.2 °F 30% 29.91 in 10.0 mi NNW 8.1 mph - N/A   Clear
6:54 PM 74.3 °F 40.5 °F 30% 29.92 in 10.0 mi NW 10.4 mph - N/A   Clear
7:14 PM 72.9 °F 41.0 °F 32% 29.92 in 10.0 mi WNW 8.1 mph - N/A   Clear
7:34 PM 70.9 °F 40.6 °F 33% 29.93 in 10.0 mi NW 6.9 mph - N/A   Clear
7:54 PM 66.9 °F 41.9 °F 40% 29.93 in 10.0 mi WNW 4.6 mph - N/A   Clear
8:14 PM 66.6 °F 41.9 °F 41% 29.93 in 10.0 mi Calm Calm - N/A   Clear
8:34 PM 63.9 °F 42.8 °F 46% 29.94 in 10.0 mi WSW 3.5 mph - N/A   Clear
8:54 PM 62.6 °F 42.8 °F 48% 29.95 in 10.0 mi WSW 4.6 mph - N/A   Clear
9:14 PM 61.0 °F 43.3 °F 52% 29.95 in 10.0 mi WSW 3.5 mph - N/A   Clear
9:35 PM 60.3 °F 43.9 °F 55% 29.95 in 10.0 mi SW 4.6 mph - N/A   Clear
9:54 PM 58.1 °F 44.1 °F 60% 29.95 in 10.0 mi WSW 3.5 mph - N/A   Clear
10:14 PM 57.7 °F 44.6 °F 62% 29.95 in 10.0 mi WSW 3.5 mph - N/A   Clear
10:34 PM 57.7 °F 45.0 °F 62% 29.95 in 10.0 mi WSW 4.6 mph - N/A   Clear
10:54 PM 57.2 °F 44.8 °F 63% 29.95 in 10.0 mi WSW 4.6 mph - N/A   Clear
11:14 PM 56.8 °F 44.8 °F 64% 29.95 in 10.0 mi WSW 3.5 mph - N/A   Clear
11:34 PM 54.9 °F 45.0 °F 69% 29.95 in 10.0 mi Calm Calm - N/A   Clear
11:54 PM 56.3 °F 45.1 °F 66% 29.95 in 10.0 mi SW 3.5 mph - N/A   Clear